Details for EasyJet at LFMN




Go Back


Latest METAR
Local Time

LFMN 240730Z 11005KT 9999 FEW026 SCT260 20/15 Q1018 NOSIG

24/05/2018, 09:52:28

Description
Results
EasyJet Logo
Number of Pilots based at LFMN
0 Pilots Based here
Number of EasyJet Flights Departed from LFMN
1 Flights Departed
Number of EasyJet Flights Arrived at LFMN
4 Flights Arrived
Number of EasyJet Schedules Departing from LFMN
166 Schedules
Number of EasyJet Schedules Arriving at LFMN
166 Schedules
Number of EasyJet Schedules Departing from LFMN availible today
59 Schedules Today
Number of EasyJet Schedules Arriving at LFMN availible today
60 Schedules Today
Average Landing Rate at LFMN
-258 fpm
EasyJet Average Landing Rate at LFMN
-257 fpm
Total Fuel Purchased at LFMN by EasyJet
2,936.56 kgs / 6,473.94 lbs

Pilots Based at LFMN


Pilot ID
Pilot Name
Pilot Rank
No. of Flights
No. of Flying Hours
There are no pilots assigned to this hub!   Will you be the first?
Content